{"data":{"norad_id":43567,"intl_designator":"2018-060D","name":"GSAT0220 (GALILEO 24)","alt_names":[],"object_type":"PAYLOAD","status":"ACTIVE","operator":null,"country":"ESA","launch_date":"2018-07-25","launch_site_code":"FRGUI","launch_vehicle":null,"mission":null,"orbit_class":"UNKNOWN","rcs_meters":null,"size_class":null,"mass_kg":null,"dimensions":null,"purposes":["earth_obs","nav"],"wikipedia_slug":null,"has_3d_model":false,"image_url":null,"decayed_at":null,"tle_current":{"epoch":"2026-09-16T01:27:04.322880Z","epoch_age_seconds":397974,"freshness":"STALE","line1":"1 43567U 18060D   26259.06046670 -.00000101  00000+0  00000+0 0  9994","line2":"2 43567  57.1353 339.3319 0003785 270.1259  89.8832  1.70476413 50726","mean_motion":1.70476413,"eccentricity":0.0003785,"inclination_deg":57.1353,"raan_deg":339.3319,"arg_perigee_deg":270.1259,"mean_anomaly_deg":89.8832,"bstar":0,"rev_number":5072,"period_min":844.69163484804,"perigee_km":23210.70012397,"apogee_km":23233.10735481,"semimajor_km":29600.04073939,"source":"CELESTRAK","updated_at":"2026-09-20T09:00:46.497679Z"}}}